Location: Unspecified
(34.4950°S, 58.5160°W)
Time: 14:47:33
(UTC+00:00)

Cosmos 1655 Rocket - Pass Details

Date: 08 July 2022
Orbit: 971 x 1005 km, 83.0° (Epoch: 11 August)

Event Time Altitude Azimuth Distance (km) Brightness Sun altitude
Rises 21:19:49 0° 34° (NNE) 3,719 6.9 -4.9°
Reaches altitude 10° 21:22:56 10° 48° (NE) 2,780 6.2 -5.5°
Maximum altitude 21:27:36 22° 95° (E) 2,061 5.2 -6.4°
Drops below altitude 10° 21:32:19 10° 143° (SE) 2,804 5.9 -7.3°
Sets 21:35:27 0° 157° (SSE) 3,759 6.6 -7.9°
